Regional Weather Roundup
Issued by NWS

Home | Current Version | Previous Version | Graphics & Text | Print | Product List | Glossary Off
Versions: 1 2 3 4 5 6 7 8 9 10 11 12 13 14 15 16 17 18 19 20 21 22 23 24 25 26 27 28 29 30 31 32 33 34 35 36 37 38 39 40 41 42 43 44 45 46 47 48 49 50

000
ASUS43 KDTX 020110
RWRMI
MICHIGAN HOURLY REGIONAL WEATHER ROUNDUP
NATIONAL WEATHER SERVICE DETROIT/PONTIAC MI
800 PM EST SUN MAR 01 2015

NOTE: "FAIR" INDICATES FEW OR NO CLOUDS BELOW 12,000 FEET WITH NO
SIGNIFICANT WEATHER AND/OR OBSTRUCTION TO VISIBILITY.

MIZ047>049-052>055-059>063-066>070-074>076-081>083-020200-
SOUTHEAST LOWER MICHIGAN

CITY           SKY/WX    TMP DP  RH WIND       PRES   REMARKS
ADRIAN         PTCLDY    20  16  84 W5        30.23S
ALMA           FLURRIES  24  18  79 SW9       30.20S
ANN ARBOR      CLOUDY    20  14  77 W6        30.21F
BAD AXE        MOCLDY    22  16  76 SW6       30.16F
DETROIT CITY   CLEAR     24  16  71 SW7       30.22R
DETROIT        PTCLDY    22  17  81 SW8       30.23S
FLINT          CLOUDY    26  14  60 W12       30.19F
GROSSE ILE     PTCLDY    21  18  86 SW5       30.21F
HILLSDALE      PTCLDY    20  16  86 W3        30.20S
HOWELL         CLOUDY    22  14  71 SW3       30.19F

CITY           SKY/WX    TMP DP  RH WIND       PRES   REMARKS
JACKSON        CLOUDY    21  14  74 SW8       30.20F
LAMBERTVILLE   MOCLDY    23  19  86 SW5       30.24F
LANSING        CLOUDY    24  15  68 W9        30.21S
LAPEER         NOT AVBL
MASON          CLOUDY    23  16  74 SW5       30.21S
MONROE         PTCLDY    18  16  93 SW6       30.22S
MT. CLEMENS    PTCLDY    24  18  77 W5        30.19R
PONTIAC        MOCLDY    20  12  71 CALM      30.18S
PORT HOPE        N/A     23  13  65 VRB7      30.14F
PORT HURON     PTCLDY    16  16 100 CALM      30.21S
TRI CITIES     CLOUDY    25  18  74 SW10      30.19S
YPSILANTI      MOCLDY    22  16  78 SW8       30.22S
$$
MIZ043>046-050>051-056>058-064>065-071>073-077>080-020200-
SOUTHWEST LOWER MICHIGAN

CITY           SKY/WX    TMP DP  RH WIND       PRES   REMARKS
BATTLE CREEK   CLOUDY    24  16  71 W10       30.22S
BENTON HARBOR    N/A     23  19  85 SW12      30.27R
BIG RAPIDS     FLURRIES  22  18  84 SW6       30.16S
COLDWATER      CLOUDY    17  13  87 W3        30.22S
HOLLAND        CLOUDY    25  19  78 SW10      30.24S
GRAND RAPIDS   CLOUDY    23  17  78 W14       30.22S
KALAMAZOO      CLOUDY    24  16  71 W16       30.24R
MARSHALL       CLOUDY    22  16  78 SW7       30.21S
MUSKEGON       CLOUDY    26  19  74 SW10      30.22S
$$
MIZ016>042-020200-
NORTHERN LOWER MICHIGAN

CITY           SKY/WX    TMP DP  RH WIND       PRES   REMARKS
ALPENA         MOCLDY    25  12  58 SW6       30.11R
BEAVER ISLAND  LGT SNOW  24  21  89 SW13G21   30.08S
BELLAIRE       CLOUDY    24  15  70 S6        30.14S
CADILLAC       FLURRIES  20  15  82 SW12      30.11R
CHARLEVOIX     FLURRIES  23  16  77 SW9       30.14S
FRANKFORT      FLURRIES  26  22  85 SW12G18   30.13F
GAYLORD        MOCLDY    18  12  77 W13       30.07R
GRAYLING       CLOUDY    21  12  68 W7        30.11R
HARBOR SPRINGS CLOUDY    21  15  76 SW9       30.09F
HOUGHTON LAKE  CLOUDY    21  14  74 SW12      30.12R
MANISTEE       MOCLDY    25  16  68 SW5       30.16S
OSCODA         MOCLDY    23  14  69 SW6       30.13S
PELLSTON       CLOUDY    23  14  68 SW7       30.09S
TRAVERSE CITY  LGT SNOW  23  16  74 S3        30.12S
$$
MIZ007>008-015-020200-
EASTERN UPPER MICHIGAN

CITY           SKY/WX    TMP DP  RH WIND       PRES   REMARKS
KINROSS        CLOUDY    21  19  93 SW6       30.06S
MACKINAC ISLAN FLURRIES  23  16  75 SW10G24   30.07F
NEWBERRY       LGT SNOW  22  19  91 SW6       30.03S
S. S. MARIE    LGT SNOW  21  15  78 SW6       30.06S
$$
MIZ004>006-011>014-085-020200-
CENTRAL UPPER MICHIGAN

CITY           SKY/WX    TMP DP  RH WIND       PRES   REMARKS
MANISTIQUE     CLOUDY    25  18  74 W7G17     30.05S
ESCANABA       CLOUDY    25   9  50 W13G23    30.11R
MENOMINEE      CLOUDY    21   9  58 W12       30.14R
SAWYER-GWINN   CLOUDY    18   7  62 W5        30.04R
$$
MIZ001>003-009>011-084-020200-
WESTERN UPPER MICHIGAN

CITY           SKY/WX    TMP DP  RH WIND       PRES   REMARKS
IRON MOUNTAIN  CLEAR     18   6  59 W6        30.07R
HOUGHTON       CLOUDY    20   7  57 W21G26    30.01S
COPPER HARBOR    N/A     21   8  57 W9G21     30.02S
IRONWOOD       MOCLDY    19   7  58 W16       30.08R
$$

ABBREVIATIONS USED IN REMARKS
   TC - TEMPERATURE IN CELSIUS
  WCI - WIND CHILL INDEX
   HX - HEAT INDEX
  VSB - VISIBILITY



USA.gov is the U.S. government's official web portal to all federal, state and local government web resources and services.